User: anonymous   Login
Location: Unspecified
(0.0000°N, 0.0000°E)
Time: 15:11:33
(UTC+00:00)
Language:

AMOS 1 - Orbit

View from above orbital plane
View from above orbital plane
View from above satellite
View from above satellite

Ground track
Ground track

The orbit data is extracted from the following two-line orbital elements,

1 23865U 96030B   16039.71635718 -.00000142 +00000-0 +00000-0 0  9997
2 23865 006.2045 057.5300 0007976 122.6564 043.4715 00.97118258071854
Epoch (UTC): 08 February 2016 17:11:33
Eccentricity: 0.0007976
inclination: 6.2045°
perigee height: 36660 km
apogee height: 36728 km
right ascension of ascending node: 57.5300°
argument of perigee: 122.6564°
revolutions per day: 0.97118258
mean anomaly at epoch: 43.4715°
orbit number at epoch: 7185

The dashed part of the orbit path shows where the satellite is in the earth's shadow,  

DLR